Tracking 19562 objects as of 23-Mar-2019
HD Live streaming from Space Station
objects crossing your sky now

FENGYUN 1C DEB

Track FENGYUN 1C DEB now!
10-day predictions


NORAD ID: 38138
Int'l Code: 1999-025EQK
Perigee: 808.3 km
Apogee: 884.7 km
Inclination: 98.9 °
Period: 101.7 minutes
Semi major axis: 7217 km
RCS: 0.0022 m2 (small)
Launch date: May 10, 1999
Source: People's Republic of China (PRC)
Launch site: Taiyaun Space Center, China (TSC)

Note: This is SATELLITE DEBRIS
aabbcc
Your satellite tracking list
Your tracking list is empty




NASA's NSSDC Master Catalog

Two Line Element Set (TLE):
1 38138U 99025EQK 19078.38249114 +.00000685 +00000-0 +36594-3 0  9994
2 38138 098.9196 136.7652 0052949 201.3449 158.5516 14.15862536288571
Source of the keplerian elements: AFSPC